Hourly Weather Abbakumovo

Today, 25 February, Thursday

Time Temperature Precipitation Wind Pressure Humidity
00:00 -3°C° 0.2 mm 4 mps 744 mmHg 96%
01:00 -2°C° 0.2 mm 5 mps 743 mmHg 97%
02:00 -1°C° 0.2 mm 5 mps 742 mmHg 98%
03:00 0°C° 0.5 mm 5 mps 742 mmHg 98%
04:00 0°C° 0.5 mm 5 mps 741 mmHg 98%
05:00 +1°C° 0.5 mm 5 mps 740 mmHg 99%
06:00 +1°C° 0.1 mm 5 mps 740 mmHg 99%
07:00 +1°C° 0.1 mm 5 mps 740 mmHg 98%
08:00 +1°C° 0.1 mm 4 mps 740 mmHg 98%
09:00 +1°C° 0.1 mm 4 mps 740 mmHg 98%
10:00 +1°C° 0.1 mm 4 mps 740 mmHg 99%
11:00 +1°C° 0.1 mm 4 mps 740 mmHg 99%
12:00 +1°C° 0.1 mm 4 mps 741 mmHg 99%
13:00 +1°C° 0.1 mm 4 mps 741 mmHg 99%
14:00 +2°C° 0.1 mm 3 mps 741 mmHg 99%
15:00 +2°C° 0.1 mm 3 mps 741 mmHg 99%
16:00 +2°C° 0.1 mm 3 mps 741 mmHg 99%
17:00 +2°C° 0.1 mm 3 mps 741 mmHg 99%
18:00 +2°C° 0.2 mm 3 mps 741 mmHg 99%
19:00 +1°C° 0.2 mm 4 mps 741 mmHg 99%
20:00 +1°C° 0.2 mm 4 mps 741 mmHg 99%
21:00 +1°C° 0.1 mm 4 mps 740 mmHg 99%
22:00 +2°C° 0.1 mm 3 mps 740 mmHg 99%
23:00 +2°C° 0.1 mm 3 mps 739 mmHg 99%

Tomorrow, 26 February, Friday

Time Temperature Precipitation Wind Pressure Humidity
00:00 +1°C° 0.1 mm 4 mps 739 mmHg 99%
01:00 +1°C° 0.1 mm 4 mps 739 mmHg 98%
02:00 +1°C° 0.1 mm 4 mps 738 mmHg 98%
03:00 +1°C° 0 mm 4 mps 738 mmHg 98%
04:00 +1°C° 0 mm 4 mps 737 mmHg 98%
05:00 +1°C° 0 mm 4 mps 736 mmHg 98%
06:00 +1°C° 0.2 mm 5 mps 735 mmHg 97%
07:00 +1°C° 0.2 mm 5 mps 735 mmHg 97%
08:00 +2°C° 0.2 mm 5 mps 734 mmHg 97%
09:00 +2°C° 0.1 mm 5 mps 734 mmHg 94%
10:00 +2°C° 0.1 mm 6 mps 733 mmHg 92%
11:00 +2°C° 0.1 mm 6 mps 733 mmHg 90%
12:00 +2°C° 0 mm 6 mps 733 mmHg 88%
13:00 +1°C° 0 mm 6 mps 733 mmHg 86%
14:00 -1°C° 0 mm 6 mps 733 mmHg 85%
15:00 -1°C° 0 mm 7 mps 733 mmHg 86%
16:00 -1°C° 0 mm 7 mps 733 mmHg 87%
17:00 -1°C° 0 mm 7 mps 733 mmHg 88%
18:00 -2°C° 0 mm 6 mps 734 mmHg 88%
19:00 -1°C° 0 mm 5 mps 734 mmHg 88%
20:00 -1°C° 0 mm 5 mps 734 mmHg 89%
21:00 -1°C° 0 mm 4 mps 734 mmHg 90%
22:00 -1°C° 0 mm 4 mps 734 mmHg 91%
23:00 -1°C° 0 mm 4 mps 733 mmHg 92%

Day after tomorrow, 27 February, Saturday

Time Temperature Precipitation Wind Pressure Humidity
00:00 0°C° 0 mm 3 mps 733 mmHg 94%
01:00 0°C° 0 mm 3 mps 733 mmHg 95%
02:00 0°C° 0 mm 3 mps 733 mmHg 97%
03:00 -1°C° 0 mm 3 mps 733 mmHg 97%
04:00 -1°C° 0 mm 3 mps 733 mmHg 97%
05:00 -1°C° 0 mm 3 mps 733 mmHg 97%
06:00 -1°C° 0.1 mm 3 mps 733 mmHg 97%
07:00 -1°C° 0.1 mm 3 mps 733 mmHg 96%
08:00 -1°C° 0.1 mm 3 mps 734 mmHg 96%
09:00 -1°C° 0 mm 3 mps 734 mmHg 96%
10:00 -1°C° 0 mm 3 mps 735 mmHg 95%
11:00 0°C° 0 mm 3 mps 735 mmHg 95%
12:00 -1°C° 0.1 mm 4 mps 736 mmHg 94%
13:00 -2°C° 0.1 mm 4 mps 736 mmHg 94%
14:00 -2°C° 0.1 mm 4 mps 737 mmHg 93%
15:00 -2°C° 0.1 mm 4 mps 737 mmHg 93%
16:00 -2°C° 0.1 mm 4 mps 738 mmHg 93%
17:00 -2°C° 0.1 mm 4 mps 738 mmHg 93%
18:00 -3°C° 0.1 mm 4 mps 739 mmHg 93%
19:00 -3°C° 0.1 mm 4 mps 739 mmHg 94%
20:00 -2°C° 0.1 mm 3 mps 740 mmHg 94%
21:00 -3°C° 0.1 mm 4 mps 740 mmHg 93%
22:00 -3°C° 0.1 mm 4 mps 741 mmHg 93%
23:00 -4°C° 0.1 mm 4 mps 741 mmHg 92%

28 February, Sunday

Time Temperature Precipitation Wind Pressure Humidity
00:00 -4°C° 0 mm 4 mps 742 mmHg 92%
01:00 -4°C° 0 mm 4 mps 742 mmHg 92%
02:00 -4°C° 0 mm 3 mps 743 mmHg 92%
03:00 -4°C° 0 mm 3 mps 743 mmHg 92%
04:00 -4°C° 0 mm 3 mps 743 mmHg 92%
05:00 -4°C° 0 mm 3 mps 744 mmHg 92%
06:00 -5°C° 0 mm 3 mps 744 mmHg 92%
07:00 -5°C° 0 mm 3 mps 744 mmHg 92%
08:00 -5°C° 0 mm 3 mps 745 mmHg 91%
09:00 -4°C° 0 mm 3 mps 745 mmHg 88%
10:00 -4°C° 0 mm 3 mps 745 mmHg 84%
11:00 -4°C° 0 mm 3 mps 745 mmHg 80%
12:00 -4°C° 0 mm 3 mps 746 mmHg 80%
13:00 -2°C° 0 mm 3 mps 746 mmHg 80%
14:00 -2°C° 0 mm 3 mps 746 mmHg 79%
15:00 -4°C° 0 mm 3 mps 746 mmHg 82%
16:00 -3°C° 0 mm 2 mps 745 mmHg 85%
17:00 -3°C° 0 mm 2 mps 745 mmHg 88%
18:00 -4°C° 0 mm 2 mps 745 mmHg 91%
19:00 -4°C° 0 mm 2 mps 746 mmHg 93%
20:00 -2°C° 0 mm 1 mps 746 mmHg 96%
21:00 -2°C° 0.1 mm 1 mps 746 mmHg 96%
22:00 -2°C° 0.1 mm 1 mps 746 mmHg 97%
23:00 -2°C° 0.1 mm 1 mps 746 mmHg 97%

1 March, Monday

Time Temperature Precipitation Wind Pressure Humidity
00:00 -1°C° 0.1 mm 1 mps 746 mmHg 97%
01:00 -1°C° 0.1 mm 1 mps 747 mmHg 97%
02:00 -1°C° 0.1 mm 1 mps 747 mmHg 98%
03:00 -1°C° 0 mm 1 mps 747 mmHg 98%
04:00 -3°C° 0 mm 2 mps 747 mmHg 97%
05:00 -3°C° 0 mm 2 mps 747 mmHg 97%
06:00 -2°C° 0 mm 2 mps 747 mmHg 97%
07:00 -2°C° 0 mm 2 mps 747 mmHg 96%
08:00 -2°C° 0 mm 2 mps 747 mmHg 95%
09:00 -1°C° 0 mm 3 mps 747 mmHg 93%
10:00 -1°C° 0 mm 3 mps 748 mmHg 92%
11:00 0°C° 0 mm 3 mps 748 mmHg 90%
12:00 0°C° 0 mm 3 mps 747 mmHg 91%
13:00 0°C° 0 mm 3 mps 747 mmHg 92%
14:00 +1°C° 0 mm 3 mps 747 mmHg 93%
15:00 0°C° 0 mm 4 mps 746 mmHg 93%
16:00 -1°C° 0 mm 4 mps 746 mmHg 93%
17:00 -1°C° 0 mm 4 mps 746 mmHg 93%
18:00 -1°C° 0 mm 4 mps 745 mmHg 92%
19:00 -1°C° 0 mm 4 mps 745 mmHg 92%
20:00 -1°C° 0 mm 4 mps 744 mmHg 92%
21:00 -1°C° 0 mm 4 mps 744 mmHg 91%
22:00 -1°C° 0 mm 4 mps 744 mmHg 91%
23:00 -1°C° 0 mm 4 mps 744 mmHg 91%

2 March, Tuesday

Time Temperature Precipitation Wind Pressure Humidity
00:00 -1°C° 0 mm 4 mps 743 mmHg 91%
01:00 -1°C° 0 mm 4 mps 743 mmHg 90%
02:00 -1°C° 0 mm 4 mps 743 mmHg 90%
03:00 -1°C° 0 mm 5 mps 742 mmHg 91%
04:00 -1°C° 0 mm 5 mps 742 mmHg 91%
05:00 -2°C° 0 mm 5 mps 742 mmHg 92%
06:00 -1°C° 0 mm 5 mps 742 mmHg 93%
07:00 -1°C° 0 mm 5 mps 742 mmHg 94%
08:00 -1°C° 0 mm 4 mps 742 mmHg 96%
09:00 -1°C° 0 mm 5 mps 743 mmHg 93%
10:00 -1°C° 0 mm 5 mps 743 mmHg 91%
11:00 0°C° 0 mm 5 mps 744 mmHg 89%
12:00 0°C° 0 mm 5 mps 744 mmHg 87%
13:00 0°C° 0 mm 5 mps 744 mmHg 86%
14:00 0°C° 0 mm 5 mps 744 mmHg 85%
15:00 -1°C° 0 mm 5 mps 744 mmHg 84%
16:00 -1°C° 0 mm 5 mps 745 mmHg 84%
17:00 -1°C° 0 mm 5 mps 745 mmHg 83%
18:00 -2°C° 0 mm 4 mps 745 mmHg 86%
19:00 -2°C° 0 mm 4 mps 745 mmHg 88%
20:00 -2°C° 0 mm 3 mps 745 mmHg 91%
21:00 -2°C° 0 mm 3 mps 745 mmHg 91%
22:00 -2°C° 0 mm 3 mps 745 mmHg 92%
23:00 -2°C° 0 mm 3 mps 746 mmHg 93%
Show more

We Need Your Consent

Meteoprog and our Service Providers may store and access personal data such as cookies, device identifiers or other similar technologies on your device and process such data to personalise content and ads, as well as provide social media features and to analyse the traffic.

  • Store and/or access information on your device

    Cookies, device identifiers or other information can be stored or accessed on your device for the purposes indicated above.

  • Personalised ads and content, ad and content measurement, audience insights, and products development

    Ads and content can be personalised based on a profile. More data can be added to better personalise ads and content. Ad and content performance can be measured. Insights about the audience who saw the ads and content can be derived. Such data can be used to develop or improve user’s experience, systems and software.

By clicking ‘I Agree’ you will allow the use of indicated cookies, device identifiers, web beacons or other similar technologies. Your settings can be changed in the browser on your device.

For certain purposes, legitimate interests may be relied on, rather than consent. You can read more about this in our Privacy and Cookie Policy.